Regional Weather Roundup
Issued by NWS Burlington, VT

Current Version | Previous Version | Text Only | Print | Product List | Glossary On
Versions: 1 2 3 4 5 6 7 8 9 10 11 12 13 14 15 16 17 18 19 20 21 22 23 24 25 26 27
000 ASUS41 KBTV 232110 RWRBTV VERMONT REGIONAL WEATHER ROUNDUP NATIONAL WEATHER SERVICE BURLINGTON VT 500 PM EDT THU OCT 23 2014 NOTE: "FAIR" INDICATES FEW OR NO CLOUDS BELOW 12,000 FEET WITH NO SIGNIFICANT WEATHER AND/OR OBSTRUCTIONS TO VISIBILITY. * THESE REPORTS ARE NOT UNDER NWS QUALITY CONTROL AND/OR DO NOT REPORT WEATHER SUCH AS PRECIPITATION AND FOG. VTZ001>019-232200- _____VERMONT_____ CITY SKY/WX TMP DP RH WIND PRES REMARKS BURLINGTON CLOUDY 45 42 89 N15 29.92S MONTPELIER LGT RAIN 45 43 93 N8 29.89F MORRISVILLE LGT RAIN 46 43 89 N9 29.90S ST. JOHNSBURY* N/A 47 46 97 MISG 29.82F LYNDONVILLE* CLOUDY 48 43 81 NW8 29.86F MIDDLEBURY* DRIZZLE 45 45 100 N12G18 29.87S RUTLAND* CLOUDY 43 43 100 N10G16 29.82S SPRINGFIELD CLOUDY 48 45 89 NE8 29.78F FOG HIGHGATE* LGT RAIN 43 41 95 N13G21 29.94S NEWPORT* LGT RAIN 45 44 96 N14 29.91S BENNINGTON CLOUDY 45 42 89 VRB5 29.78S SUTTON* N/A 45 N/A N/A MISG N/A _____LAKE CHAMPLAIN_____ CITY SKY/WX TMP DP RH WIND PRES REMARKS COLCHESTER RF* N/A 45 45 100 N26 N/A DIAMOND ISL* N/A 46 43 87 NW22 N/A $$ NYZ007-026>031-035-052-083-232200- _____NORTHERN NEW YORK_____ CITY SKY/WX TMP DP RH WIND PRES REMARKS PLATTSBURGH LGT RAIN 45 43 93 N20 29.94F SARANAC LAKE LGT RAIN 41 39 93 NE9 29.91R MASSENA LGT RAIN 48 45 89 NE8 30.00F OGDENSBURG* CLOUDY 50 45 81 NE10G18 29.99S POTSDAM* LGT RAIN 46 46 100 NE12 29.98S WATERTOWN CLOUDY 52 41 66 NE9 29.96F FT DRUM CLOUDY 48 41 76 NE13G21 29.95S ALBANY LGT RAIN 47 44 90 N10 29.83R GLENS FALLS CLOUDY 48 44 86 N5 29.84S $$ NHZ002-005-011-232200- _____NEW HAMPSHIRE_____ CITY SKY/WX TMP DP RH WIND PRES REMARKS LEBANON RAIN 49 45 86 N8 29.78F FOG KEENE CLOUDY 48 41 76 N9 29.73S MT WASHINGTON FOG 32 32 100 E38 N/A VSB 1/16 PLYMOUTH RAIN 50 50 100 NW3 29.76F WHITEFIELD LGT RAIN 48 45 89 E5 29.80F $$ _____REGIONAL QUEBEC LOCATIONS_____ CITY SKY/WX TMP DP RH WIND PRES REMARKS MONTREAL LGT RAIN 46 43 87 NE16G25 30.00S SHERBROOKE LGT RAIN 45 43 93 NE8 29.92S _____REGIONAL ONTARIO LOCATIONS_____ CITY SKY/WX TMP DP RH WIND PRES REMARKS OTTAWA MOCLDY 55 46 71 N7 30.00F ______KEY______ VSB - VISIBILITY IN MILES WCI - WIND CHILL INDEX HX - HEAT INDEX $$ NNNN

USA.gov is the U.S. government's official web portal to all federal, state and local government web resources and services.